Regional Weather Roundup
Issued by NWS

Home | Current Version | Previous Version | Text Only | Print | Product List | Glossary On
Versions: 1 2 3 4 5 6 7 8 9 10 11 12 13 14 15 16 17 18 19 20 21 22 23 24 25 26 27 28 29 30 31 32 33 34 35 36 37 38 39 40 41 42 43 44 45 46 47 48 49 50
000
ASUS43 KLMK 240010
RWRKY
KENTUCKY REGIONAL WEATHER ROUNDUP
NATIONAL WEATHER SERVICE LOUISVILLE KY
800 PM EDT SUN APR 23 2017

NOTE "FAIR" INDICATES FEW OR NO CLOUDS BELOW 12,000 FEET
WITH NO SIGNIFICANT WEATHER AND/OR OBSTRUCTIONS TO VISIBILITY.

KYZ001>023-026-027-061>063-070>075-240100-
WESTERN AND SOUTH CENTRAL KENTUCKY

CITY           SKY/WX    TMP DP  RH WIND       PRES   REMARKS
PADUCAH        CLEAR     67  36  31 N12G23    29.91S
HENDERSON      CLEAR     67  37  33 E9        29.92R
OWENSBORO      CLOUDY    60  46  59 E14       29.93R
HOPKINSVILLE   RAIN      54  50  87 N16       29.90R
BOWLING GREEN  LGT RAIN  54  51  90 N5        29.89S
GLASGOW        DRIZZLE   52  52 100 N9        29.87S
$$

KYZ024-025-028>034-038-045-046-053-240100-
NORTH CENTRAL KENTUCKY

CITY           SKY/WX    TMP DP  RH WIND       PRES   REMARKS
LOUISVILLE/SDF CLOUDY    61  39  44 N14G21    29.90F
LOUISVILLE/LOU CLOUDY    61  39  44 N8        29.91F
FORT KNOX      CLOUDY    57  42  56 N6        29.90R
$$

KYZ035>037-039>044-047>052-055>060-089>105-240100-
NORTHEAST KENTUCKY

CITY           SKY/WX    TMP DP  RH WIND       PRES   REMARKS
LEXINGTON      CLOUDY    56  46  69 NE18      29.90F
COVINGTON      CLOUDY    62  36  37 NE9       29.95F
FRANKFORT      CLOUDY    58  45  62 NE10G17   29.91F
$$

KYZ054-064>069-076>088-106>120-240100-
SOUTHEAST KENTUCKY

CITY           SKY/WX    TMP DP  RH WIND       PRES   REMARKS
JACKSON        LGT RAIN  51  50  96 VRB3      29.91F
LONDON         CLOUDY    53  49  86 E14G28    29.82F
SOMERSET       CLOUDY    54  50  87 E8        29.86R
MIDDLESBORO    RAIN      54  52  91 S6        29.86F
MONTICELLO     CLOUDY    55  52  89 N6        29.86R
$$




USA.gov is the U.S. government's official web portal to all federal, state and local government web resources and services.